Regional Weather Roundup
Issued by NWS

Home | Current Version | Previous Version | Graphics & Text | Print | Product List | Glossary On
Versions: 1 2 3 4 5 6 7 8 9 10 11 12 13 14 15 16 17 18 19 20 21 22 23 24 25 26 27 28 29 30 31 32 33 34 35 36 37 38 39 40 41 42 43 44 45 46 47 48 49 50
000
ASUS43 KDTX 191510
RWRMI
MICHIGAN HOURLY REGIONAL WEATHER ROUNDUP
NATIONAL WEATHER SERVICE DETROIT/PONTIAC MI
1000 AM EST SUN FEB 19 2017

NOTE: "FAIR" INDICATES FEW OR NO CLOUDS BELOW 12,000 FEET WITH NO
SIGNIFICANT WEATHER AND/OR OBSTRUCTION TO VISIBILITY.

MIZ047>049-052>055-059>063-066>070-074>076-081>083-191600-
SOUTHEAST LOWER MICHIGAN

CITY           SKY/WX    TMP DP  RH WIND       PRES   REMARKS
ADRIAN         MOSUNNY   47  37  68 NW7       30.00R
ALMA           SUNNY     46  33  60 W7        30.01R
ANN ARBOR      CLOUDY    48  35  60 W6        29.98R
BAD AXE        SUNNY     45  34  65 W8        29.96R
CARO           MOSUNNY   45  36  68 W6        29.97R
DETROIT CITY   SUNNY     50  36  58 NW6       29.97R
DETROIT        PTSUNNY   50  35  56 W6        29.98R
FLINT          SUNNY     46  35  65 W8        29.99R
GROSSE ILE     CLOUDY    48  36  62 W6        29.96S
HILLSDALE      SUNNY     45  36  70 W7        30.00R
HOWELL         SUNNY     46  35  65 W8        29.99R

CITY           SKY/WX    TMP DP  RH WIND       PRES   REMARKS
JACKSON        CLOUDY    46  34  62 NW9       30.00R
LAMBERTVILLE   PTSUNNY   47  38  71 W7        29.99S
LANSING        SUNNY     47  33  58 W6        30.01R
LAPEER         FAIR      46  35  65 W3        29.97R
MASON          SUNNY     45  37  71 W6        30.00R
MONROE         CLOUDY    47  39  74 W9G18     29.98R
MT. CLEMENS    MOSUNNY   49  36  60 W6        29.95R
PONTIAC        CLOUDY    45  34  65 W6        29.96R
PORT HOPE        N/A     47  33  58 W8        29.93R
PORT HURON     SUNNY     46  36  66 W3        29.95R
TRI CITIES     SUNNY     46  35  65 NW9       29.99R
MIDLAND        FAIR      47  31  53 NW7       29.98R
TROY           MOSUNNY   50  31  48 NW5       29.98R
SAGINAW HB     SUNNY     48  32  53 NW9       29.98R
$$
MIZ043>046-050>051-056>058-064>065-071>073-077>080-191600-
SOUTHWEST LOWER MICHIGAN

CITY           SKY/WX    TMP DP  RH WIND       PRES   REMARKS
BATTLE CREEK   SUNNY     47  35  63 NW6       30.02R
BENTON HARBOR  SUNNY     46  37  71 W3        30.04R
BIG RAPIDS     SUNNY     41  35  78 CALM      29.99S
COLDWATER      SUNNY     47  37  69 W5        30.02R
FREMONT        FAIR      41  34  75 CALM      30.00S
HOLLAND        SUNNY     48  35  60 NW5       30.02R
GRAND RAPIDS   MOSUNNY   46  35  65 NW6       30.02R
IONIA          FAIR      45  33  65 W8        30.00R
KALAMAZOO      SUNNY     49  34  56 W6        30.03R
LUDINGTON      SUNNY     46  35  66 NW5       30.01R
MARSHALL       SUNNY     47  35  62 W7        30.00R
MOUNT PLEASANT SUNNY     45  32  59 W7        29.99R
MUSKEGON       MOSUNNY   48  35  60 N3        30.02R
SOUTH HAVEN    SUNNY     47  35  64 CALM      30.03R
$$
MIZ016>042-191600-
NORTHERN LOWER MICHIGAN

CITY           SKY/WX    TMP DP  RH WIND       PRES   REMARKS
ALPENA         SUNNY     44  33  65 NW8       29.95R
BEAVER ISLAND  PTSUNNY   39  33  77 NW5       29.99R
BELLAIRE       SUNNY     34  32  91 CALM      30.00R
CADILLAC       SUNNY     46  31  56 NW3       29.97S
CHARLEVOIX     SUNNY     41  34  74 W8        30.02R
FRANKFORT      SUNNY     46  35  65 CALM      29.99S
GAYLORD        SUNNY     43  30  60 VRB3      29.96R
GRAYLING       SUNNY     42  32  67 W8        29.97R
HARBOR SPRINGS SUNNY     36  32  86 CALM      29.98R
HOUGHTON LAKE  SUNNY     41  30  65 W7        29.97R
MANISTEE       SUNNY     45  36  70 W3        30.00R
OSCODA         CLOUDY    45  32  60 W9G16     29.93S
PELLSTON       SUNNY     39  30  70 NW8       29.97R WCI  33
ROGERS CITY    SUNNY     44  32  63 W9        29.96R
TRAVERSE CITY  MOSUNNY   45  32  60 N9        29.98R
$$
MIZ007>008-015-191600-
EASTERN UPPER MICHIGAN

CITY           SKY/WX    TMP DP  RH WIND       PRES   REMARKS
KINROSS        CLOUDY    37  31  78 NW8       29.95R WCI  31
MACKINAC ISLAN CLOUDY    39  32  74 NW8       29.96R WCI  34
NEWBERRY       MOSUNNY   37  32  79 NW5       29.96R WCI  34
S. S. MARIE    PTSUNNY   37  31  78 W5        29.93R WCI  33
MUNISING         N/A     37  32  82 N10       29.99R WCI  30
$$
MIZ004>006-011>014-085-191600-
CENTRAL UPPER MICHIGAN

CITY           SKY/WX    TMP DP  RH WIND       PRES   REMARKS
MANISTIQUE     CLOUDY    37  33  84 N6        29.98R WCI  33
ESCANABA       CLOUDY    42  31  64 CALM      30.00R
MENOMINEE      SUNNY     46  30  53 VRB6      30.02R
SAWYER-GWINN   SUNNY     36  30  80 N7        29.98R WCI  30
$$
MIZ001>003-009>011-084-191600-
WESTERN UPPER MICHIGAN

CITY           SKY/WX    TMP DP  RH WIND       PRES   REMARKS
IRON MOUNTAIN  CLOUDY    37  27  67 CALM      29.99R
HOUGHTON       MOSUNNY   37  28  70 N8        29.96S WCI  31
COPPER HARBOR    N/A     37  31  78 N8        29.98R WCI  31
IRONWOOD       MOSUNNY   36  28  73 CALM      30.00R
$$

ABBREVIATIONS USED IN REMARKS
   TC - TEMPERATURE IN CELSIUS
  WCI - WIND CHILL INDEX
   HX - HEAT INDEX
  VSB - VISIBILITY





USA.gov is the U.S. government's official web portal to all federal, state and local government web resources and services.